AFR7501 LSGG-LIMF

Flight info

Callsign AFR7501
Flight time 0h 33m
Altitude 19000
Route ROCCA1N/04 ROCCA T345 LURAG M135 VEROB
Aircraft A320/M-SDE3FGHIRWY/LB1

Departure

Time 2026-05-08 20:16
Airport Geneva International Airport (LSGG)

Arrival

Time 2026-05-08 20:49
Airport Turin Airport (LIMF)
Time Latitude Longitude Altitude Speed Heading
2026-05-08 19:57 46.23450 6.10852 1403 ft 0 kts 135°
2026-05-08 20:06 46.23445 6.10859 1398 ft 3 kts 135°
2026-05-08 20:07 46.23418 6.10891 1387 ft 7 kts 153°
2026-05-08 20:07 46.23371 6.10866 1395 ft 8 kts 223°
2026-05-08 20:07 46.23356 6.10794 1398 ft 8 kts 300°
2026-05-08 20:07 46.23402 6.10724 1398 ft 11 kts 315°
2026-05-08 20:08 46.23440 6.10634 1403 ft 7 kts 245°
2026-05-08 20:08 46.23414 6.10630 1404 ft 5 kts 180°
2026-05-08 20:08 46.23377 6.10607 1396 ft 7 kts 219°
2026-05-08 20:08 46.23335 6.10548 1397 ft 10 kts 226°
2026-05-08 20:09 46.23281 6.10467 1401 ft 13 kts 226°
2026-05-08 20:09 46.23212 6.10367 1401 ft 16 kts 225°
2026-05-08 20:09 46.23128 6.10246 1397 ft 19 kts 225°
2026-05-08 20:09 46.23068 6.10145 1399 ft 11 kts 227°
2026-05-08 20:10 46.23004 6.10049 1395 ft 16 kts 224°
2026-05-08 20:10 46.22918 6.09925 1404 ft 18 kts 226°
2026-05-08 20:10 46.22826 6.09787 1396 ft 16 kts 226°
2026-05-08 20:10 46.22745 6.09670 1401 ft 17 kts 224°
2026-05-08 20:11 46.22657 6.09546 1403 ft 19 kts 225°
2026-05-08 20:11 46.22568 6.09396 1406 ft 17 kts 243°
2026-05-08 20:11 46.22552 6.09318 1400 ft 6 kts 261°
2026-05-08 20:11 46.22550 6.09250 1404 ft 0 kts 271°
2026-05-08 20:13 46.22550 6.09241 1402 ft 2 kts 273°
2026-05-08 20:14 46.22558 6.09206 1400 ft 5 kts 295°
2026-05-08 20:14 46.22583 6.09171 1401 ft 5 kts 329°
2026-05-08 20:14 46.22616 6.09168 1402 ft 5 kts 12°
2026-05-08 20:14 46.22644 6.09193 1405 ft 5 kts 41°
2026-05-08 20:15 46.22647 6.09197 1404 ft 0 kts 42°
2026-05-08 20:15 46.22732 6.09310 1401 ft 52 kts 43°
2026-05-08 20:15 46.23159 6.09944 1402 ft 119 kts 45°
2026-05-08 20:15 46.23867 6.10977 1410 ft 168 kts 45°
2026-05-08 20:16 46.24673 6.12183 2063 ft 164 kts 45°
2026-05-08 20:16 46.25457 6.13346 2768 ft 163 kts 45°
2026-05-08 20:16 46.26277 6.14556 3288 ft 179 kts 45°
2026-05-08 20:16 46.27204 6.15918 3679 ft 202 kts 45°
2026-05-08 20:17 46.28261 6.17465 4145 ft 226 kts 45°
2026-05-08 20:17 46.29420 6.19165 4726 ft 246 kts 45°
2026-05-08 20:17 46.30623 6.20927 5620 ft 252 kts 45°
2026-05-08 20:17 46.31861 6.22747 6600 ft 256 kts 45°
2026-05-08 20:18 46.33117 6.24595 7572 ft 260 kts 45°
2026-05-08 20:18 46.34398 6.26478 8445 ft 266 kts 45°
2026-05-08 20:18 46.35627 6.28496 8814 ft 268 kts 59°
2026-05-08 20:18 46.36215 6.31036 8972 ft 269 kts 85°
2026-05-08 20:19 46.36051 6.33712 9017 ft 268 kts 107°
2026-05-08 20:19 46.35226 6.36104 9003 ft 267 kts 128°
2026-05-08 20:19 46.33851 6.37891 9027 ft 267 kts 151°
2026-05-08 20:19 46.32091 6.38771 9695 ft 270 kts 173°
2026-05-08 20:20 46.30212 6.38682 10625 ft 272 kts 194°
2026-05-08 20:20 46.28465 6.37620 11493 ft 275 kts 209°
2026-05-08 20:20 46.26784 6.36271 12352 ft 278 kts 210°
2026-05-08 20:20 46.25094 6.34890 13173 ft 281 kts 210°
2026-05-08 20:21 46.23376 6.33481 13971 ft 285 kts 210°
2026-05-08 20:21 46.21604 6.32144 14756 ft 289 kts 204°
2026-05-08 20:21 46.19690 6.31190 15517 ft 293 kts 194°
2026-05-08 20:21 46.17673 6.30679 16273 ft 297 kts 185°
2026-05-08 20:22 46.15600 6.30504 17011 ft 300 kts 183°
2026-05-08 20:22 46.13477 6.30352 17429 ft 316 kts 183°
2026-05-08 20:22 46.11196 6.30189 17583 ft 339 kts 183°
2026-05-08 20:22 46.08844 6.30015 17708 ft 360 kts 183°
2026-05-08 20:23 46.06259 6.29823 17836 ft 381 kts 183°
2026-05-08 20:23 46.03592 6.29874 17962 ft 401 kts 175°
2026-05-08 20:23 46.00733 6.30562 18108 ft 420 kts 166°
2026-05-08 20:23 45.97980 6.31934 18448 ft 430 kts 156°
2026-05-08 20:24 45.95262 6.33923 18871 ft 435 kts 149°
2026-05-08 20:24 45.92848 6.36458 18989 ft 439 kts 139°
2026-05-08 20:24 45.90671 6.39622 19013 ft 448 kts 133°
2026-05-08 20:24 45.88550 6.42924 19009 ft 452 kts 133°
2026-05-08 20:25 45.86431 6.46257 19009 ft 453 kts 132°
2026-05-08 20:25 45.84296 6.49604 19009 ft 454 kts 133°
2026-05-08 20:25 45.82158 6.52917 19009 ft 452 kts 133°
2026-05-08 20:25 45.80003 6.56222 19009 ft 453 kts 133°
2026-05-08 20:26 45.77846 6.59514 19009 ft 454 kts 133°
2026-05-08 20:26 45.75687 6.62802 19010 ft 454 kts 133°
2026-05-08 20:26 45.73530 6.66110 19004 ft 455 kts 132°
2026-05-08 20:26 45.71420 6.69506 19000 ft 456 kts 131°
2026-05-08 20:27 45.69361 6.72950 18996 ft 456 kts 130°
2026-05-08 20:27 45.67333 6.76417 19000 ft 456 kts 130°
2026-05-08 20:27 45.65300 6.79915 19011 ft 455 kts 130°
2026-05-08 20:27 45.63272 6.83379 19012 ft 455 kts 130°
2026-05-08 20:28 45.61220 6.86834 19008 ft 454 kts 130°
2026-05-08 20:28 45.59163 6.90255 19010 ft 454 kts 131°
2026-05-08 20:28 45.57103 6.93652 19000 ft 455 kts 131°
2026-05-08 20:28 45.55024 6.97080 19010 ft 458 kts 131°
2026-05-08 20:29 45.52937 7.00522 19009 ft 461 kts 131°
2026-05-08 20:29 45.50831 7.03996 19008 ft 461 kts 131°
2026-05-08 20:29 45.48733 7.07458 18961 ft 463 kts 131°
2026-05-08 20:29 45.46639 7.10914 18703 ft 461 kts 131°
2026-05-08 20:30 45.44576 7.14315 18464 ft 457 kts 131°
2026-05-08 20:30 45.42506 7.17725 18214 ft 455 kts 131°
2026-05-08 20:30 45.40441 7.21120 17959 ft 453 kts 131°
2026-05-08 20:30 45.38375 7.24513 17708 ft 451 kts 131°
2026-05-08 20:31 45.36329 7.27870 17459 ft 446 kts 131°
2026-05-08 20:31 45.34314 7.31170 17205 ft 433 kts 131°
2026-05-08 20:31 45.32382 7.34330 16948 ft 416 kts 131°
2026-05-08 20:31 45.30664 7.37540 16707 ft 402 kts 123°
2026-05-08 20:32 45.29328 7.40964 16464 ft 389 kts 115°
2026-05-08 20:32 45.28393 7.44432 16203 ft 363 kts 107°
2026-05-08 20:32 45.27703 7.47748 16017 ft 337 kts 107°
2026-05-08 20:32 45.27056 7.50818 16005 ft 315 kts 107°
2026-05-08 20:33 45.26430 7.53767 16008 ft 310 kts 107°
2026-05-08 20:33 45.25809 7.56684 16009 ft 308 kts 107°
2026-05-08 20:33 45.25192 7.59588 16009 ft 308 kts 107°
2026-05-08 20:33 45.24577 7.62504 16009 ft 308 kts 107°
2026-05-08 20:34 45.23958 7.65420 15780 ft 307 kts 107°
2026-05-08 20:34 45.23339 7.68311 15529 ft 305 kts 107°
2026-05-08 20:34 45.21863 7.73879 15026 ft 298 kts 123°
2026-05-08 20:35 45.20540 7.76099 14771 ft 293 kts 139°
2026-05-08 20:35 45.18868 7.77707 14527 ft 289 kts 155°
2026-05-08 20:35 45.16984 7.78626 14155 ft 289 kts 170°
2026-05-08 20:35 45.15001 7.78789 13965 ft 282 kts 184°
2026-05-08 20:36 45.13068 7.78646 13837 ft 274 kts 183°
2026-05-08 20:36 45.11171 7.78517 13416 ft 277 kts 183°
2026-05-08 20:36 45.09189 7.78387 12629 ft 294 kts 183°
2026-05-08 20:36 45.07134 7.78253 12275 ft 294 kts 183°
2026-05-08 20:37 45.05111 7.78124 12050 ft 288 kts 183°
2026-05-08 20:37 45.03112 7.77996 11623 ft 285 kts 183°
2026-05-08 20:37 45.01147 7.77870 11115 ft 282 kts 183°
2026-05-08 20:37 44.99209 7.77744 10522 ft 283 kts 183°
2026-05-08 20:38 44.97240 7.77615 9863 ft 285 kts 183°
2026-05-08 20:38 44.95241 7.77486 9115 ft 290 kts 183°
2026-05-08 20:38 44.93217 7.77357 8357 ft 293 kts 183°
2026-05-08 20:38 44.91150 7.77224 7592 ft 295 kts 183°
2026-05-08 20:39 44.89125 7.77094 6845 ft 294 kts 183°
2026-05-08 20:39 44.87085 7.76961 6088 ft 292 kts 183°
2026-05-08 20:39 44.85064 7.76832 5335 ft 290 kts 183°
2026-05-08 20:39 44.83083 7.76634 4913 ft 275 kts 192°
2026-05-08 20:40 44.81465 7.75499 4903 ft 255 kts 225°
2026-05-08 20:40 44.80606 7.73444 4908 ft 238 kts 258°
2026-05-08 20:40 44.80620 7.71220 4903 ft 221 kts 285°
2026-05-08 20:40 44.81269 7.69345 4733 ft 214 kts 308°
2026-05-08 20:41 44.82460 7.68038 4327 ft 217 kts 336°
2026-05-08 20:41 44.83885 7.67503 4204 ft 208 kts 348°
2026-05-08 20:41 44.85278 7.67106 4078 ft 200 kts 348°
2026-05-08 20:41 44.86609 7.66718 3975 ft 193 kts 348°
2026-05-08 20:42 44.87923 7.66332 3919 ft 192 kts 348°
2026-05-08 20:42 44.89227 7.65950 3900 ft 191 kts 348°
2026-05-08 20:42 44.90532 7.65568 3898 ft 191 kts 348°
2026-05-08 20:42 44.91830 7.65190 3902 ft 188 kts 348°
2026-05-08 20:43 44.93096 7.64821 3913 ft 183 kts 348°
2026-05-08 20:43 44.94333 7.64462 3906 ft 180 kts 348°
2026-05-08 20:43 44.95559 7.64106 3909 ft 182 kts 348°
2026-05-08 20:43 44.96780 7.63750 3907 ft 180 kts 348°
2026-05-08 20:44 44.98012 7.63456 3904 ft 180 kts 358°
2026-05-08 20:44 44.99259 7.63560 3907 ft 180 kts
2026-05-08 20:44 45.00504 7.63669 3909 ft 180 kts
2026-05-08 20:44 45.01751 7.63775 3909 ft 179 kts
2026-05-08 20:45 45.02998 7.63880 3908 ft 179 kts
2026-05-08 20:45 45.03826 7.63946 3901 ft 180 kts
2026-05-08 20:45 45.05454 7.64042 3573 ft 161 kts
2026-05-08 20:45 45.06518 7.64107 3367 ft 147 kts
2026-05-08 20:46 45.07518 7.64168 3178 ft 142 kts
2026-05-08 20:46 45.08500 7.64230 2991 ft 140 kts
2026-05-08 20:46 45.09471 7.64291 2798 ft 139 kts
2026-05-08 20:46 45.10437 7.64352 2621 ft 139 kts
2026-05-08 20:47 45.11401 7.64413 2435 ft 138 kts
2026-05-08 20:47 45.12361 7.64473 2254 ft 138 kts
2026-05-08 20:47 45.13318 7.64534 2071 ft 137 kts
2026-05-08 20:47 45.14273 7.64595 1881 ft 137 kts
2026-05-08 20:48 45.15220 7.64655 1707 ft 137 kts
2026-05-08 20:48 45.16161 7.64714 1527 ft 136 kts
2026-05-08 20:48 45.17118 7.64775 1344 ft 136 kts
2026-05-08 20:48 45.18059 7.64835 1164 ft 136 kts
2026-05-08 20:49 45.19006 7.64895 988 ft 136 kts
2026-05-08 20:49 45.19762 7.64926 967 ft 70 kts
2026-05-08 20:49 45.19995 7.64942 968 ft 2 kts
2026-05-08 20:49 45.20022 7.64946 979 ft 5 kts
2026-05-08 20:50 45.20073 7.64956 974 ft 9 kts
2026-05-08 20:50 45.20117 7.64961 976 ft 12 kts
2026-05-08 20:50 45.20187 7.64902 980 ft 12 kts 304°
2026-05-08 20:50 45.20203 7.64797 980 ft 0 kts 271°
2026-05-08 20:56 45.20202 7.64775 979 ft 5 kts 265°
2026-05-08 20:56 45.20170 7.64715 983 ft 11 kts 207°
2026-05-08 20:57 45.20080 7.64693 982 ft 16 kts 180°
2026-05-08 20:57 45.19954 7.64690 969 ft 21 kts 182°
2026-05-08 20:57 45.19790 7.64686 964 ft 25 kts 174°
2026-05-08 20:57 45.19614 7.64693 963 ft 25 kts 183°
2026-05-08 20:58 45.19489 7.64684 965 ft 15 kts 182°
2026-05-08 20:58 45.19406 7.64678 966 ft 11 kts 183°
2026-05-08 20:58 45.19330 7.64673 966 ft 12 kts 183°
2026-05-08 20:58 45.19254 7.64665 963 ft 7 kts 197°
2026-05-08 20:59 45.19231 7.64596 959 ft 6 kts 260°
2026-05-08 20:59 45.19230 7.64582 959 ft 3 kts 260°
2026-05-08 20:59 45.19227 7.64560 961 ft 1 kts 258°
2026-05-08 20:59 45.19224 7.64543 961 ft 0 kts 257°